Flag for U.S.A. Weather past 2 weeks in Sunrise Manor, Nevada, U.S.A.

Now
85 °F

Clear.


Feels Like: 82 °F
Forecast: 65 / 93 °F
Wind: 9 mph from South

Location: Nellis Air Force Base

Current Time: Jun 2, 2015 at 11:06:51 PM

Latest Report: Jun 2, 2015 at 9:58 PM


Visibility: 10 mi

Pressure: 29.68 "Hg

Humidity: 11%

Dew point: 25 °F

Location of Sunrise ManorLocation

Historic Weather in Sunrise Manor — Graph

°F

Sunrise Manor temperature yesterday

Maximum temperature yesterday: 96 °F (at 2:58 PM)
Minimum temperature yesterday: 81 °F (at 3:58 AM)
Average temperature yesterday: 88 °F

Past Weeks' High & Low Weather Summary

 TemperatureHumidityPressure
High103 °F (May 31, 3:58 PM)85% (May 25, 4:58 AM)29.94 "Hg (May 25, 4:58 AM)
Low53 °F (May 19, 3:58 AM)4% (Jun 1, 3:58 PM)29.64 "Hg (May 31, 6:58 PM)
Average79 °F26%29.79 "Hg
* Reported May 18 9:58 PM — Jun 2 9:58 PM, Sunrise Manor, Weather by CustomWeather, © 2015

Note: Actual official high and low records may vary slightly from our data, if they occured in-between our weather recording intervals... More about our weather records

Advertising

Sunrise Manor weather history for previous 24 hours

 ConditionsComfort  
Time TempWeatherWind HumidityBarometerVisibility
9:58 PM
Tue, Jun 2
85 °FClear.9 mph11%29.68 "Hg10 mi
8:58 PM87 °FClear.8 mph10%29.67 "Hg10 mi
7:58 PM90 °FSunny.15 mph8%29.66 "Hg10 mi
6:58 PM92 °FSunny.17 mph7%29.65 "Hg10 mi
5:58 PM95 °FSunny.16 mph7%29.65 "Hg10 mi
4:58 PM95 °FSunny.7 mph6%29.66 "Hg10 mi
3:58 PM95 °FSunny.10 mph7%29.67 "Hg10 mi
2:58 PM94 °FSunny.6 mph8%29.70 "Hg10 mi
1:58 PM92 °FSunny.12 mph9%29.72 "Hg10 mi
12:58 PM89 °FSunny.7 mph10%29.75 "Hg10 mi
11:58 AM86 °FSunny.2 mph12%29.79 "Hg10 mi
10:58 AM84 °FSunny.5 mph15%29.80 "Hg10 mi
9:58 AM81 °FSunny.9 mph19%29.81 "Hg10 mi
8:58 AM79 °FSunny.9 mph23%29.81 "Hg10 mi
7:58 AM77 °FSunny.12 mph22%29.80 "Hg10 mi
6:58 AM74 °FSunny.14 mph25%29.86 "Hg10 mi
5:58 AM73 °FClear.12 mph26%29.78 "Hg10 mi
4:58 AM74 °FClear.13 mph26%29.76 "Hg10 mi
3:58 AM75 °FClear.15 mph25%29.75 "Hg10 mi
2:58 AM77 °FClear.18 mph23%29.72 "Hg10 mi
1:58 AM79 °FClear.18 mph20%29.72 "Hg10 mi
12:58 AM80 °FClear.20 mph17%29.71 "Hg10 mi
11:58 PM
Mon, Jun 1
82 °FClear.20 mph15%29.72 "Hg10 mi
Weather by CustomWeather, © 2015

See weather overviewHow to use our weather pages